TimeMST,TemperatureF,Dew PointF,Humidity,Sea Level PressureIn,VisibilityMPH,Wind Direction,Wind SpeedMPH,Gust SpeedMPH,PrecipitationIn,Events,Conditions,WindDirDegrees,DateUTC
1:54 AM,-0.0,-2.9,88,30.05,10.0,WNW,3.5,-,N/A,,Clear,290,2014-03-03 08:54:00
2:54 AM,1.0,-2.9,83,30.02,10.0,East,3.5,-,N/A,,Scattered Clouds,100,2014-03-03 09:54:00
3:54 AM,1.9,-2.9,80,30.00,10.0,Calm,Calm,-,N/A,,Clear,0,2014-03-03 10:54:00
4:54 AM,1.9,-2.9,80,30.01,10.0,Calm,Calm,-,N/A,,Clear,0,2014-03-03 11:54:00
5:54 AM,3.0,-0.9,84,29.99,10.0,East,3.5,-,N/A,,Clear,100,2014-03-03 12:54:00
6:54 AM,8.1,3.0,80,29.98,10.0,ESE,5.8,-,N/A,,Clear,120,2014-03-03 13:54:00
7:54 AM,16.0,12.0,84,29.95,10.0,Calm,Calm,-,N/A,,Clear,0,2014-03-03 14:54:00
8:54 AM,35.1,26.1,70,29.91,10.0,WSW,15.0,-,N/A,,Clear,240,2014-03-03 15:54:00
9:54 AM,36.0,28.0,73,29.91,10.0,WSW,10.4,-,N/A,,Clear,250,2014-03-03 16:54:00
10:54 AM,34.0,25.0,70,29.94,10.0,West,11.5,-,N/A,,Scattered Clouds,260,2014-03-03 17:54:00
11:54 AM,25.0,16.0,69,29.96,10.0,NNW,3.5,-,N/A,,Partly Cloudy,340,2014-03-03 18:54:00
12:54 PM,18.0,12.0,78,29.97,10.0,WNW,6.9,-,N/A,,Clear,290,2014-03-03 19:54:00
1:54 PM,16.0,10.0,77,29.99,10.0,WNW,3.5,-,N/A,,Clear,290,2014-03-03 20:54:00
2:54 PM,19.0,10.9,71,29.96,10.0,Calm,Calm,-,N/A,,Clear,0,2014-03-03 21:54:00
3:54 PM,18.0,10.9,74,29.96,10.0,Calm,Calm,-,N/A,,Mostly Cloudy,0,2014-03-03 22:54:00
4:54 PM,19.9,12.9,74,29.93,10.0,North,4.6,-,N/A,,Overcast,350,2014-03-03 23:54:00
5:54 PM,19.0,12.9,77,29.92,10.0,Variable,3.5,-,N/A,,Overcast,0,2014-03-04 00:54:00
6:54 PM,17.1,12.0,81,29.94,10.0,WNW,6.9,-,0.00,,Overcast,290,2014-03-04 01:54:00
7:54 PM,17.1,12.9,84,29.91,10.0,SSE,8.1,-,0.00,,Overcast,150,2014-03-04 02:54:00
8:54 PM,24.1,21.0,88,29.81,10.0,SSE,4.6,-,N/A,,Overcast,160,2014-03-04 03:54:00
9:54 PM,28.0,25.0,88,29.80,10.0,SE,6.9,-,N/A,,Overcast,130,2014-03-04 04:54:00
10:54 PM,35.1,28.0,76,29.77,10.0,WSW,6.9,-,N/A,,Overcast,250,2014-03-04 05:54:00
11:54 PM,39.0,30.9,73,29.78,10.0,WSW,15.0,-,N/A,,Clear,240,2014-03-04 06:54:00